ネオワイズ彗星

C/2017 C1 ( NEOWISE )

English version
Home page
Updated on July 6, 2017

---------------------------------------------------------------------

・ プロフィール

発見日 2017年2月6日
発見光度 19等
発見者 Near-Earth Object Wide-field Infrared Survey Explorer

・ 写真集

・ 軌道要素

Epoch 2017 Jan. 7.0 TT = JDT 2457760.5
T 2017 Jan. 18.94184 TT                                 MPCW
q   1.5017302            (2000.0)            P               Q
n   0.01040232     Peri.  110.20121     -0.32787918     -0.94385333
a  20.7833667      Node   357.45734     +0.02695758     +0.03345119
e   0.9277437      Incl.   65.75172     +0.94433497     -0.32866687
P  94.75
From 49 observations 2017 Feb. 6-Apr. 21, mean residual 0".5.

・ 光度変化

        m1 = 17.5 + 5 logΔ + 10.0 log r

---------------------------------------------------------------------

軌道要素はM.P.E.C. 2017-J52に掲載されたものです。
光度グラフはComet for Windowsで作成したものです。

---------------------------------------------------------------------

Copyright(C) Seiichi Yoshida (comet@aerith.net). All rights reserved.